Flag for U.S.A. Weather past 2 weeks in Springfield, Missouri, U.S.A.

Now
21 °F

Snow. Ice fog.


Feels Like: 9 °F
Forecast: 17 / 28 °F
Wind: 13 mph from Southeast

Location: Springfield Regional Airport

Current Time: Feb 28, 2015 at 11:28:28 AM

Latest Report: Feb 28, 2015 at 10:52 AM


Visibility: 0 mi

Pressure: 30.52 "Hg

Humidity: 85%

Dew point: 17 °F

Location of SpringfieldLocation

Historic Weather in Springfield — Graph

°F

Springfield temperature yesterday

Maximum temperature yesterday: 22 °F (at 2:52 PM)
Minimum temperature yesterday: 6 °F (at 6:52 AM)
Average temperature yesterday: 16 °F

Past Weeks' High & Low Weather Summary

 TemperatureHumidityPressure
High54 °F (Feb 14, 11:52 AM)96% (Feb 21, 10:52 AM)30.72 "Hg (Feb 21, 10:52 AM)
Low-3 °F (Feb 19, 1:52 AM)24% (Feb 15, 2:52 PM)29.79 "Hg (Feb 25, 3:52 PM)
Average24 °F63%30.24 "Hg
* Reported Feb 13 9:52 AM — Feb 28 9:52 AM, Springfield, Weather by CustomWeather, © 2015

Note: Actual official high and low records may vary slightly from our data, if they occured in-between our weather recording intervals... More about our weather records

Advertising

Springfield weather history for previous 24 hours

 ConditionsComfort  
Time TempWeatherWind HumidityBarometerVisibility
9:52 AM
Sat, Feb 28
22 °FLight snow. Mostly cloudy.12 mph78%30.53 "Hg1 mi
9:03 AM21 °FLight snow. Mostly cloudy.14 mph78%30.48 "Hg1 mi
8:52 AM21 °FLight snow. Mostly cloudy.14 mph78%30.52 "Hg2 mi
7:52 AM20 °FLight snow. Overcast.12 mph78%30.53 "Hg5 mi
6:52 AM20 °FLight snow. Overcast.8 mph74%30.54 "Hg2 mi
5:52 AM20 °FOvercast.12 mph68%30.53 "Hg10 mi
4:52 AM20 °FOvercast.10 mph65%30.52 "Hg10 mi
3:52 AM20 °FOvercast.7 mph62%30.53 "Hg10 mi
2:52 AM20 °FOvercast.9 mph62%30.53 "Hg10 mi
1:52 AM20 °FOvercast.6 mph62%30.55 "Hg10 mi
12:52 AM19 °FOvercast.3 mph68%30.55 "Hg10 mi
11:52 PM
Fri, Feb 27
20 °FOvercast.5 mph65%30.55 "Hg10 mi
10:52 PM19 °FOvercast.5 mph74%30.56 "Hg10 mi
9:52 PM19 °FMostly cloudy.6 mph74%30.58 "Hg10 mi
8:52 PM19 °FMostly cloudy.7 mph71%30.57 "Hg10 mi
7:52 PM20 °FOvercast.9 mph65%30.56 "Hg10 mi
6:52 PM22 °FOvercast.6 mph44%30.56 "Hg10 mi
5:52 PM22 °FMostly cloudy.9 mph42%30.55 "Hg10 mi
4:52 PM22 °FOvercast.6 mph44%30.55 "Hg10 mi
3:52 PM22 °FOvercast.7 mph42%30.56 "Hg10 mi
2:52 PM22 °FOvercast.5 mph44%30.57 "Hg10 mi
1:52 PM20 °FScattered clouds.No wind43%30.58 "Hg10 mi
12:52 PM19 °FPassing clouds.No wind47%30.61 "Hg10 mi
11:52 AM18 °FBroken clouds.10 mph49%30.62 "Hg10 mi
Weather by CustomWeather, © 2015

See weather overviewHow to use our weather pages